This is the latest recevied weather packets stored in our database for station/object WK1F-2. If no packets are shown the sender has not sent any weather packets the latest 10 day(s).
| Time | Temp. | Humidity | Pressure | Rain* | Wind** | Luminosity | Snow |
|---|---|---|---|---|---|---|---|
| 1777739516 | 18.33° C | 98% | 1009.8 hPa | 5.08 mm | - | - | - |
| 1777739216 | 18.33° C | 98% | 1009.9 hPa | 5.59 mm | - | - | - |
| 1777738916 | 18.33° C | 98% | 1009.8 hPa | 6.35 mm | - | - | - |
| 1777738616 | 18.89° C | 98% | 1010.3 hPa | 5.59 mm | - | - | - |
| 1777738316 | 18.33° C | 98% | 1010 hPa | 5.08 mm | - | - | - |
| 1777738016 | 18.33° C | 98% | 1009.5 hPa | 8.13 mm | - | - | - |
| 1777737716 | 18.33° C | 98% | 1009.3 hPa | 9.65 mm | - | - | - |
| 1777737416 | 18.33° C | 98% | 1009.1 hPa | 9.91 mm | - | - | - |
| 1777737116 | 18.33° C | 98% | 1009.1 hPa | 10.92 mm | - | - | - |
| 1777736816 | 18.33° C | 98% | 1009 hPa | 11.43 mm | - | - | - |
| 1777736516 | 18.33° C | 98% | 1009.1 hPa | 11.94 mm | - | - | - |
| 1777736216 | 18.33° C | 98% | 1009.3 hPa | 12.19 mm | - | - | - |
| 1777735916 | 18.33° C | 98% | 1009.2 hPa | 13.72 mm | - | - | - |
| 1777735616 | 17.78° C | 98% | 1009.5 hPa | 14.22 mm | - | - | - |
| 1777735316 | 17.78° C | 98% | 1009.5 hPa | 13.97 mm | - | - | - |
| 1777735016 | 17.78° C | 97% | 1009.5 hPa | 13.72 mm | - | - | - |
| 1777734716 | 17.78° C | 97% | 1010.1 hPa | 13.97 mm | - | - | - |
| 1777734416 | 17.78° C | 97% | 1010.3 hPa | 11.43 mm | - | - | - |
| 1777734116 | 17.78° C | 97% | 1009.9 hPa | 9.65 mm | - | - | - |
| 1777733816 | 17.78° C | 97% | 1008.4 hPa | 8.89 mm | - | - | - |
| 1777733516 | 17.78° C | 97% | 1008.9 hPa | 7.37 mm | - | - | - |
| 1777733216 | 17.78° C | 97% | 1009.5 hPa | 6.35 mm | - | - | - |
| 1777732916 | 17.78° C | 96% | 1010.2 hPa | 5.33 mm | - | - | - |
| 1777732616 | 17.78° C | 96% | 1009.8 hPa | 5.08 mm | - | - | - |
| 1777732316 | 17.78° C | 96% | 1010.2 hPa | 3.81 mm | - | - | - |
* Rain latest hour (hover to see other rain measurements)
** Current wind speed in m/s (hover to see current wind gust speed)